Regional Weather Roundup
Issued by NWS Mt. Holly, NJ

Home | Current Version | Previous Version | Text Only | Print | Product List | Glossary On
Versions: 1 2 3 4 5 6 7 8 9 10 11 12 13 14 15 16 17 18 19 20 21 22 23 24 25 26 27 28 29 30 31 32 33 34 35 36 37 38 39 40 41 42 43 44 45 46 47 48 49 50
000
ASUS41 KPHI 250412
RWRPHI

REGIONAL WEATHER ROUNDUP
NATIONAL WEATHER SERVICE MOUNT HOLLY NJ
1200 AM EDT THU MAY 25 2017

NOTE:  "FAIR" INDICATES FEW OR NO CLOUDS BELOW 12,000 FEET WITH NO
SIGNIFICANT WEATHER AND/OR OBSTRUCTIONS TO VISIBILITY.

 * = STATION DOES NOT REPORT PRECIPITATION (E.G. RAIN, SNOW, ETC.)
        OR FOG.

NJZ015>026-250500-
SOUTHERN NEW JERSEY

CITY           SKY/WX    TMP DP  RH WIND       PRES   REMARKS
POMONA         CLOUDY    56  52  86 E14G22    29.78F
WILDWOOD*      CLOUDY    56  53  90 E15G22    29.76F
MILLVILLE      CLOUDY    57  55  93 E14       29.75F
WRIGHTSTOWN    CLOUDY    56  52  85 E8        29.76F
MOUNT HOLLY    CLOUDY    57  52  83 E7        29.78F
TRENTON        CLOUDY    57  51  80 E9        29.78F

$$
NJZ001>014-250500-
NORTHERN NEW JERSEY

CITY           SKY/WX    TMP DP  RH WIND       PRES   REMARKS
SUSSEX         CLOUDY    58  51  78 CALM      29.83R
ANDOVER*         N/A     56  49  77 CALM      29.81F
MORRISTOWN     CLOUDY    57  52  82 CALM      29.82F
NEWARK         CLOUDY    59  52  77 E8        29.81F
TETERBORO      CLOUDY    59  51  75 E8        29.81S
CALDWELL       CLOUDY    60  50  69 SE6       29.82F
SOMERVILLE     CLOUDY    57  52  83 VRB3      29.79F
ALLAIRE*       CLOUDY    56  52  86 E10       29.81F
TOMS RIVER*    CLOUDY    56  53  90 VRB7      29.80F

$$
PAZ043-044-047-054-055-060>062-066>071-250500-
EASTERN PENNSYLVANIA

CITY           SKY/WX    TMP DP  RH WIND       PRES   REMARKS
PHILADELPHIA   CLOUDY    59  51  75 E12       29.77F
NORTH PHILA    CLOUDY    59  51  75 E8        29.80F
BLUE BELL*     CLOUDY    55  50  82 E8        29.79F
DOYLESTOWN     CLOUDY    56  32  40 CALM      29.78F
PERKASIE*      MOCLDY    55  50  82 E5        29.80S
POTTSTOWN      CLOUDY    57  50  77 VRB6      29.78F
LANCASTER      CLOUDY    61  53  75 SE14      29.73F
COATESVILLE    CLOUDY    57  52  82 E12G24    29.75F
READING        CLOUDY    61  52  72 E10G20    29.74F
ALLENTOWN      CLOUDY    60  49  66 SE12      29.79F
MOUNT POCONO   CLOUDY    52  48  86 SE12G23   29.79F
HAZLETON       CLOUDY    55  46  71 E10G17    29.78F
LEHIGHTON      CLOUDY    59  46  63 SE7       29.78F
WILKES BARRE   CLOUDY    61  50  67 CALM      29.76F

$$
DEZALL-MDZ008-012-015-019-020-250500-
DELAWARE AND EASTERN MARYLAND

CITY           SKY/WX    TMP DP  RH WIND       PRES   REMARKS
WILMINGTON     CLOUDY    59  53  80 E13       29.76F
DOVER          CLOUDY    57  57 100 E12G20    29.73F
GEORGETOWN     CLOUDY    57  54  89 E13G23    29.74F
EASTON         CLOUDY    58  54  85 E8G16     29.75F
ABERDEEN       CLOUDY    59  53  81 E14G22    29.73F
PATUXENT       LGT RAIN  57  57 100 E18       29.68F
OCEAN CITY     CLOUDY    56  54  93 E13G20    29.74F
WALLOPS ISLAND HVY RAIN  56  56 100 E15       29.72F
CAMBRIDGE      CLOUDY    57  55  94 E9        29.71F FOG
SALISBURY      LGT RAIN  56  55  97 E14       29.73S

$$
PAZ001-021-NYZ056-072-MDZ011-DCZ001-250500-
OTHER NEARBY LOCATIONS

CITY           SKY/WX    TMP DP  RH WIND       PRES   REMARKS
HARRISBURG     CLOUDY    62  51  67 SE14      29.72R
STATE COLLEGE  LGT RAIN  61  52  71 SE12G23   29.68S
WILLIAMSPORT   CLOUDY    64  50  60 SE12      29.70F
BINGHAMTON     CLOUDY    57  46  66 SE10      29.75F
NEW YORK CITY  CLOUDY    59  51  75 VRB3      29.84F
BALTIMORE      LGT RAIN  58  56  93 E17       29.70F
WASHINGTON DC  LGT RAIN  59  58  96 E9        29.69F

$$



USA.gov is the U.S. government's official web portal to all federal, state and local government web resources and services.